Regional Weather Roundup
Issued by NWS

Home | Current Version | Previous Version | Text Only | Print | Product List | Glossary Off
Versions: 1 2 3 4 5 6 7 8 9 10 11 12 13 14 15 16 17 18 19 20 21 22 23 24 25 26 27 28 29 30 31 32 33 34 35 36 37 38 39 40 41 42 43 44 45 46 47 48 49 50

000
ASUS43 KLSX 241659
RWRMO

WEATHER SUMMARY FOR MISSOURI
NATIONAL WEATHER SERVICE SPRINGFIELD MO
1200 PM CDT FRI OCT 24 2014

NOTE: "FAIR" INDICATES FEW OR NO CLOUDS BELOW 12,000 FEET WITH NO
       SIGNIFICANT WEATHER AND/OR OBSTRUCTIONS TO VISIBILITY.
       CURRENT SKY AND/OR WEATHER CONDITIONS ARE NOT AVAILABLE FOR
       CHILLICOTHE AND FARMINGTON.

MOZ001>031-035>038-043-044-053-054-241800-
...NORTHERN AND WESTERN MISSOURI...

CITY           SKY/WX    TMP DP  RH WIND       PRES   REMARKS
KANSAS CTY INT CLOUDY    66  60  81 SW12      30.04S
KANSAS C DTWN  PTSUNNY   70  60  70 SW9       30.03F
LEE`S SUMMIT   MOSUNNY   66  59  78 SW12      30.06S
ST JOSEPH      CLOUDY    66  60  81 S10       30.01F
CHILLICOTHE      N/A     61  58  90 S9        30.05F
KIRKSVILLE     FOG       60  60 100 S10       30.07F VSB 3/4

$$
MOZ066>068-077>081-088>096-101>105-241800-
...SOUTHWEST MISSOURI...

CITY           SKY/WX    TMP DP  RH WIND       PRES   REMARKS
SPRINGFIELD    CLOUDY    69  57  65 SW9       30.12F
JOPLIN         MOSUNNY   69  57  65 SW14      30.11F

$$
MOZ032>034-039>042-045>050-055>058-069>072-241800-
...CENTRAL MISSOURI...

CITY           SKY/WX    TMP DP  RH WIND       PRES   REMARKS
COLUMBIA       CLOUDY    67  60  78 S8        30.10F
JEFFERSON CITY CLOUDY    67  57  70 S7        30.10F
ROLLA          MOSUNNY   64  54  69 S8        30.11F
SEDALIA        PTSUNNY   68  57  68 S12       30.08F
OSAGE BEACH    CLOUDY    66  55  68 SW5       30.11F

$$
MOZ051-052-059>065-241800-
...EAST CENTRAL MISSOURI...

CITY           SKY/WX    TMP DP  RH WIND       PRES   REMARKS
ST LOUIS INTL  PTSUNNY   68  56  65 W6        30.12F
SPIRIT OF STL  MOSUNNY   67  55  65 W6        30.11F
ST CHARLES     MOSUNNY   64  56  75 CALM      30.11F

$$
MOZ072>076-082>087-097>100-106>115-241800-
...SOUTH CENTRAL AND SOUTHEAST MISSOURI...

CITY           SKY/WX    TMP DP  RH WIND       PRES   REMARKS
CAPE GIRARDEAU PTSUNNY   62  53  72 NW3       30.14S
FARMINGTON     SUNNY     66  52  59 CALM      30.15S
POPLAR BLUFF   MOSUNNY   65  53  65 W5        30.13F
WEST PLAINS    MOSUNNY   66  54  65 VRB5      30.16S

$$



USA.gov is the U.S. government's official web portal to all federal, state and local government web resources and services.